Time,TemperatureF,DewpointF,PressureIn,WindDirection,WindDirectionDegrees,WindSpeedMPH,WindSpeedGustMPH,Humidity,HourlyPrecipIn,Conditions,Clouds,dailyrainin,SoftwareType,DateUTC
2013-08-26 00:01:00,63.7,59.1,30.33,NNW,343,1.0,2.0,85,0.00,,---,0.00,VWS V14.01,2013-08-26 04:01:00,
2013-08-26 00:06:00,63.5,58.6,30.33,NNW,343,0.0,0.0,84,0.00,,---,0.00,VWS V14.01,2013-08-26 04:06:00,
2013-08-26 00:12:00,63.5,59.2,30.33,NNW,343,0.0,0.0,86,0.00,,---,0.00,VWS V14.01,2013-08-26 04:12:00,
2013-08-26 00:17:00,63.0,59.1,30.33,NNW,342,0.0,0.0,87,0.00,,---,0.00,VWS V14.01,2013-08-26 04:17:00,
2013-08-26 00:22:00,62.4,58.8,30.33,NNW,343,0.0,0.0,88,0.00,,---,0.00,VWS V14.01,2013-08-26 04:22:00,
2013-08-26 00:27:00,62.0,58.7,30.33,NNW,342,0.0,0.0,89,0.00,,---,0.00,VWS V14.01,2013-08-26 04:27:00,
2013-08-26 00:32:00,61.8,58.8,30.33,NNW,342,1.0,1.0,90,0.00,,---,0.00,VWS V14.01,2013-08-26 04:32:00,
2013-08-26 00:37:00,61.8,59.2,30.33,NNW,343,0.0,0.0,91,0.00,,---,0.00,VWS V14.01,2013-08-26 04:37:00,
2013-08-26 00:42:00,61.6,59.0,30.33,NNW,343,0.0,0.0,91,0.00,,---,0.00,VWS V14.01,2013-08-26 04:42:00,
2013-08-26 00:47:00,61.3,58.0,30.33,North,350,0.0,1.0,89,0.00,,---,0.00,VWS V14.01,2013-08-26 04:47:00,
2013-08-26 00:52:00,62.2,57.6,30.33,North,350,0.0,0.0,85,0.00,,---,0.00,VWS V14.01,2013-08-26 04:52:00,
2013-08-26 00:57:00,62.9,58.0,30.33,North,6,0.0,0.0,84,0.00,,---,0.00,VWS V14.01,2013-08-26 04:57:00,
2013-08-26 01:02:00,62.9,57.7,30.33,North,6,0.0,0.0,83,0.00,,---,0.00,VWS V14.01,2013-08-26 05:02:00,
2013-08-26 01:07:00,62.7,57.8,30.32,North,6,0.0,0.0,84,0.00,,---,0.00,VWS V14.01,2013-08-26 05:07:00,
2013-08-26 01:12:00,62.6,57.7,30.32,North,6,0.0,0.0,84,0.00,,---,0.00,VWS V14.01,2013-08-26 05:12:00,
2013-08-26 01:17:00,62.6,58.0,30.33,North,6,0.0,0.0,85,0.00,,---,0.00,VWS V14.01,2013-08-26 05:17:00,
2013-08-26 01:22:00,62.4,58.5,30.33,NNW,342,2.0,3.0,87,0.00,,---,0.00,VWS V14.01,2013-08-26 05:22:00,
2013-08-26 01:27:00,62.2,58.3,30.33,NNW,342,0.0,1.0,87,0.00,,---,0.00,VWS V14.01,2013-08-26 05:27:00,
2013-08-26 01:32:00,62.2,58.0,30.32,NNW,341,0.0,1.0,86,0.00,,---,0.00,VWS V14.01,2013-08-26 05:32:00,
2013-08-26 01:37:00,62.1,58.2,30.32,NNW,341,0.0,0.0,87,0.00,,---,0.00,VWS V14.01,2013-08-26 05:37:00,
2013-08-26 01:42:00,61.8,58.2,30.32,NNW,341,0.0,0.0,88,0.00,,---,0.00,VWS V14.01,2013-08-26 05:42:00,
2013-08-26 01:47:00,61.7,57.8,30.32,NNW,341,0.0,0.0,87,0.00,,---,0.00,VWS V14.01,2013-08-26 05:47:00,
2013-08-26 01:52:00,62.3,57.7,30.32,NNW,343,0.0,1.0,85,0.00,,---,0.00,VWS V14.01,2013-08-26 05:52:00,
2013-08-26 01:57:00,62.9,57.7,30.32,NNE,19,0.0,1.0,83,0.00,,---,0.00,VWS V14.01,2013-08-26 05:57:00,
2013-08-26 02:02:00,62.8,57.6,30.31,NNE,18,0.0,0.0,83,0.00,,---,0.00,VWS V14.01,2013-08-26 06:02:00,
2013-08-26 02:07:00,62.9,57.7,30.32,NNE,19,0.0,1.0,83,0.00,,---,0.00,VWS V14.01,2013-08-26 06:07:00,
2013-08-26 02:12:00,63.4,57.5,30.32,NNE,19,0.0,1.0,81,0.00,,---,0.00,VWS V14.01,2013-08-26 06:12:00,
2013-08-26 02:18:00,63.5,57.6,30.32,NNE,19,0.0,1.0,81,0.00,,---,0.00,VWS V14.01,2013-08-26 06:18:00,
2013-08-26 02:23:00,63.0,57.8,30.31,NNE,18,0.0,1.0,83,0.00,,---,0.00,VWS V14.01,2013-08-26 06:23:00,
2013-08-26 02:28:00,62.5,57.3,30.31,NNE,18,0.0,0.0,83,0.00,,---,0.00,VWS V14.01,2013-08-26 06:28:00,
2013-08-26 02:33:00,62.4,57.5,30.31,NNE,19,0.0,0.0,84,0.00,,---,0.00,VWS V14.01,2013-08-26 06:33:00,
2013-08-26 02:38:00,62.0,57.5,30.31,NNE,19,0.0,1.0,85,0.00,,---,0.00,VWS V14.01,2013-08-26 06:38:00,
2013-08-26 02:43:00,61.4,57.2,30.31,NNW,340,0.0,1.0,86,0.00,,---,0.00,VWS V14.01,2013-08-26 06:43:00,
2013-08-26 02:48:00,61.1,56.9,30.31,NNW,340,0.0,0.0,86,0.00,,---,0.00,VWS V14.01,2013-08-26 06:48:00,
2013-08-26 02:53:00,61.1,56.9,30.31,NNE,14,0.0,1.0,86,0.00,,---,0.00,VWS V14.01,2013-08-26 06:53:00,
2013-08-26 02:58:00,61.4,57.2,30.31,NNE,14,0.0,0.0,86,0.00,,---,0.00,VWS V14.01,2013-08-26 06:58:00,
2013-08-26 03:03:00,60.9,57.0,30.31,NNE,16,0.0,1.0,87,0.00,,---,0.00,VWS V14.01,2013-08-26 07:03:00,
2013-08-26 03:08:00,60.6,56.7,30.30,NNE,16,0.0,1.0,87,0.00,,---,0.00,VWS V14.01,2013-08-26 07:08:00,
2013-08-26 03:13:00,60.5,56.6,30.31,NNE,16,0.0,0.0,87,0.00,,---,0.00,VWS V14.01,2013-08-26 07:13:00,
2013-08-26 03:18:00,60.3,56.7,30.31,NNE,16,0.0,0.0,88,0.00,,---,0.00,VWS V14.01,2013-08-26 07:18:00,
2013-08-26 03:23:00,60.5,56.6,30.31,NNE,19,0.0,1.0,87,0.00,,---,0.00,VWS V14.01,2013-08-26 07:23:00,
2013-08-26 03:28:00,60.5,56.6,30.31,NNE,19,0.0,0.0,87,0.00,,---,0.00,VWS V14.01,2013-08-26 07:28:00,
2013-08-26 03:33:00,60.5,56.6,30.30,NNE,18,0.0,0.0,87,0.00,,---,0.00,VWS V14.01,2013-08-26 07:33:00,
2013-08-26 03:38:00,60.5,56.6,30.30,NNE,19,0.0,0.0,87,0.00,,---,0.00,VWS V14.01,2013-08-26 07:38:00,
2013-08-26 03:43:00,60.4,56.8,30.30,NNE,18,0.0,1.0,88,0.00,,---,0.00,VWS V14.01,2013-08-26 07:43:00,
2013-08-26 03:48:00,60.5,56.6,30.30,NNE,18,0.0,0.0,87,0.00,,---,0.00,VWS V14.01,2013-08-26 07:48:00,
2013-08-26 03:53:00,60.5,56.6,30.30,NNE,18,0.0,0.0,87,0.00,,---,0.00,VWS V14.01,2013-08-26 07:53:00,
2013-08-26 03:58:00,60.4,56.5,30.30,NNE,20,0.0,0.0,87,0.00,,---,0.00,VWS V14.01,2013-08-26 07:58:00,
2013-08-26 04:03:00,60.3,56.7,30.30,NNE,14,0.0,1.0,88,0.00,,---,0.00,VWS V14.01,2013-08-26 08:03:00,
2013-08-26 04:08:00,59.9,56.7,30.30,NNE,13,0.0,1.0,89,0.00,,---,0.00,VWS V14.01,2013-08-26 08:08:00,
2013-08-26 04:13:00,59.5,56.6,30.30,NNW,345,2.0,2.0,90,0.00,,---,0.00,VWS V14.01,2013-08-26 08:13:00,
2013-08-26 04:18:00,59.1,56.2,30.30,NNW,344,0.0,1.0,90,0.00,,---,0.00,VWS V14.01,2013-08-26 08:18:00,
2013-08-26 04:23:00,58.8,56.2,30.30,NNW,344,0.0,0.0,91,0.00,,---,0.00,VWS V14.01,2013-08-26 08:23:00,
2013-08-26 04:28:00,58.6,56.3,30.30,NNW,344,0.0,0.0,92,0.00,,---,0.00,VWS V14.01,2013-08-26 08:28:00,
2013-08-26 04:33:00,58.6,56.3,30.29,NNW,344,1.0,1.0,92,0.00,,---,0.00,VWS V14.01,2013-08-26 08:33:00,
2013-08-26 04:38:00,58.5,56.2,30.30,NNW,330,1.0,2.0,92,0.00,,---,0.00,VWS V14.01,2013-08-26 08:38:00,
2013-08-26 04:43:00,58.2,55.9,30.30,NW,323,0.0,1.0,92,0.00,,---,0.00,VWS V14.01,2013-08-26 08:43:00,
2013-08-26 04:48:00,57.8,55.5,30.30,NW,325,0.0,1.0,92,0.00,,---,0.00,VWS V14.01,2013-08-26 08:48:00,
2013-08-26 04:54:00,57.5,55.5,30.29,NNW,330,2.0,2.0,93,0.00,,---,0.00,VWS V14.01,2013-08-26 08:54:00,
2013-08-26 04:59:00,57.2,55.2,30.29,NNW,338,2.0,3.0,93,0.00,,---,0.00,VWS V14.01,2013-08-26 08:59:00,
2013-08-26 05:04:00,57.1,55.4,30.29,NNW,343,2.0,2.0,94,0.00,,---,0.00,VWS V14.01,2013-08-26 09:04:00,
2013-08-26 05:09:00,56.9,55.2,30.29,NNW,328,1.0,3.0,94,0.00,,---,0.00,VWS V14.01,2013-08-26 09:09:00,
2013-08-26 05:14:00,56.8,55.1,30.29,NNW,339,3.0,4.0,94,0.00,,---,0.00,VWS V14.01,2013-08-26 09:14:00,
2013-08-26 05:19:00,56.8,55.4,30.29,NNW,335,2.0,4.0,95,0.00,,---,0.00,VWS V14.01,2013-08-26 09:19:00,
2013-08-26 05:24:00,56.9,55.5,30.29,NNW,342,2.0,5.0,95,0.00,,---,0.00,VWS V14.01,2013-08-26 09:24:00,
2013-08-26 05:29:00,56.9,55.5,30.29,NNW,348,2.0,4.0,95,0.00,,---,0.00,VWS V14.01,2013-08-26 09:29:00,
2013-08-26 05:34:00,57.0,55.6,30.29,NNW,341,2.0,2.0,95,0.00,,---,0.00,VWS V14.01,2013-08-26 09:34:00,
2013-08-26 05:39:00,57.0,55.6,30.29,North,354,2.0,3.0,95,0.00,,---,0.00,VWS V14.01,2013-08-26 09:39:00,
2013-08-26 05:44:00,57.1,55.7,30.29,NNW,339,0.0,3.0,95,0.00,,---,0.00,VWS V14.01,2013-08-26 09:44:00,
2013-08-26 05:49:00,57.1,55.7,30.28,NNW,335,2.0,2.0,95,0.00,,---,0.00,VWS V14.01,2013-08-26 09:49:00,
2013-08-26 05:54:00,57.2,56.1,30.28,NNW,340,2.0,3.0,96,0.00,,---,0.00,VWS V14.01,2013-08-26 09:54:00,
2013-08-26 05:59:00,57.3,56.2,30.28,NNW,340,1.0,3.0,96,0.00,,---,0.00,VWS V14.01,2013-08-26 09:59:00,
2013-08-26 06:04:00,57.3,56.2,30.28,NNW,340,0.0,1.0,96,0.00,,---,0.00,VWS V14.01,2013-08-26 10:04:00,
2013-08-26 06:09:00,57.2,56.1,30.28,NNW,335,0.0,2.0,96,0.00,,---,0.00,VWS V14.01,2013-08-26 10:09:00,
2013-08-26 06:14:00,57.2,56.1,30.28,NNW,334,0.0,1.0,96,0.00,,---,0.00,VWS V14.01,2013-08-26 10:14:00,
2013-08-26 06:19:00,57.2,56.1,30.28,NNW,335,1.0,2.0,96,0.00,,---,0.00,VWS V14.01,2013-08-26 10:19:00,
2013-08-26 06:24:00,57.3,56.2,30.28,NNW,328,1.0,2.0,96,0.00,,---,0.00,VWS V14.01,2013-08-26 10:24:00,
2013-08-26 06:29:00,57.3,56.2,30.28,NNW,329,0.0,2.0,96,0.00,,---,0.00,VWS V14.01,2013-08-26 10:29:00,
2013-08-26 06:34:00,57.2,56.1,30.28,NNW,328,0.0,1.0,96,0.00,,---,0.00,VWS V14.01,2013-08-26 10:34:00,
2013-08-26 06:39:00,57.0,55.9,30.28,NNW,329,0.0,0.0,96,0.00,,---,0.00,VWS V14.01,2013-08-26 10:39:00,
2013-08-26 06:44:00,57.1,56.0,30.28,NNW,328,0.0,0.0,96,0.00,,---,0.00,VWS V14.01,2013-08-26 10:44:00,
2013-08-26 06:49:00,57.3,56.2,30.28,NNW,330,1.0,2.0,96,0.00,,---,0.00,VWS V14.01,2013-08-26 10:49:00,
2013-08-26 06:54:00,57.3,56.2,30.29,North,358,2.0,4.0,96,0.00,,---,0.00,VWS V14.01,2013-08-26 10:54:00,
2013-08-26 06:59:00,57.3,56.2,30.29,NNW,335,2.0,3.0,96,0.00,,---,0.00,VWS V14.01,2013-08-26 10:59:00,
2013-08-26 07:04:00,57.3,56.2,30.29,NNW,341,1.0,2.0,96,0.00,,---,0.00,VWS V14.01,2013-08-26 11:04:00,
2013-08-26 07:09:00,57.3,56.2,30.30,NNW,339,1.0,2.0,96,0.00,,---,0.00,VWS V14.01,2013-08-26 11:09:00,
2013-08-26 07:15:00,57.4,56.3,30.29,NNW,338,1.0,1.0,96,0.00,,---,0.00,VWS V14.01,2013-08-26 11:15:00,
2013-08-26 07:20:00,57.6,56.5,30.29,NNW,340,0.0,1.0,96,0.00,,---,0.00,VWS V14.01,2013-08-26 11:20:00,
2013-08-26 07:25:00,58.1,57.0,30.30,NNW,340,0.0,1.0,96,0.00,,---,0.00,VWS V14.01,2013-08-26 11:25:00,
2013-08-26 07:30:00,58.3,56.9,30.30,NNW,340,0.0,0.0,95,0.00,,---,0.00,VWS V14.01,2013-08-26 11:30:00,
2013-08-26 07:35:00,58.6,57.2,30.30,NNW,340,0.0,1.0,95,0.00,,---,0.00,VWS V14.01,2013-08-26 11:35:00,
2013-08-26 07:40:00,58.8,57.4,30.29,NNW,340,0.0,1.0,95,0.00,,---,0.00,VWS V14.01,2013-08-26 11:40:00,
2013-08-26 07:45:00,59.0,57.6,30.29,NNW,340,0.0,1.0,95,0.00,,---,0.00,VWS V14.01,2013-08-26 11:45:00,
2013-08-26 07:50:00,59.3,57.9,30.30,NNW,340,2.0,2.0,95,0.00,,---,0.00,VWS V14.01,2013-08-26 11:50:00,
2013-08-26 07:55:00,59.4,57.7,30.30,NNW,333,1.0,2.0,94,0.00,,---,0.00,VWS V14.01,2013-08-26 11:55:00,
2013-08-26 08:00:00,59.4,57.7,30.30,NNW,333,0.0,1.0,94,0.00,,---,0.00,VWS V14.01,2013-08-26 12:00:00,
2013-08-26 08:05:00,59.5,57.8,30.30,NNW,333,0.0,1.0,94,0.00,,---,0.00,VWS V14.01,2013-08-26 12:05:00,
2013-08-26 08:10:00,59.8,58.1,30.31,NNW,339,1.0,2.0,94,0.00,,---,0.00,VWS V14.01,2013-08-26 12:10:00,
2013-08-26 08:15:00,59.9,57.9,30.31,NNW,339,0.0,1.0,93,0.00,,---,0.00,VWS V14.01,2013-08-26 12:15:00,
2013-08-26 08:20:00,60.1,58.1,30.30,NNW,335,2.0,2.0,93,0.00,,---,0.00,VWS V14.01,2013-08-26 12:20:00,
2013-08-26 08:25:00,60.1,58.1,30.30,NNW,329,1.0,3.0,93,0.00,,---,0.00,VWS V14.01,2013-08-26 12:25:00,
2013-08-26 08:30:00,60.2,57.9,30.30,NNW,330,2.0,3.0,92,0.00,,---,0.00,VWS V14.01,2013-08-26 12:30:00,
2013-08-26 08:35:00,60.2,57.9,30.31,NW,323,3.0,4.0,92,0.00,,---,0.00,VWS V14.01,2013-08-26 12:35:00,
2013-08-26 08:40:00,60.4,58.4,30.31,NW,326,2.0,5.0,93,0.00,,---,0.00,VWS V14.01,2013-08-26 12:40:00,
2013-08-26 08:45:00,60.9,58.9,30.31,NNW,328,0.0,3.0,93,0.00,,---,0.00,VWS V14.01,2013-08-26 12:45:00,
2013-08-26 08:50:00,61.3,59.0,30.31,NNW,332,1.0,3.0,92,0.00,,---,0.00,VWS V14.01,2013-08-26 12:50:00,
2013-08-26 08:55:00,61.7,59.4,30.31,NNW,333,0.0,5.0,92,0.00,,---,0.00,VWS V14.01,2013-08-26 12:55:00,
2013-08-26 09:00:00,62.2,59.5,30.31,North,349,0.0,5.0,91,0.00,,---,0.00,VWS V14.01,2013-08-26 13:00:00,
2013-08-26 09:05:00,62.6,59.6,30.31,NE,56,1.0,5.0,90,0.00,,---,0.00,VWS V14.01,2013-08-26 13:05:00,
2013-08-26 09:10:00,63.0,60.0,30.31,NNW,345,1.0,6.0,90,0.00,,---,0.00,VWS V14.01,2013-08-26 13:10:00,
2013-08-26 09:15:00,63.7,60.7,30.32,NNW,338,0.0,2.0,90,0.00,,---,0.00,VWS V14.01,2013-08-26 13:15:00,
2013-08-26 09:20:00,64.3,61.0,30.31,NNW,328,0.0,2.0,89,0.00,,---,0.00,VWS V14.01,2013-08-26 13:20:00,
2013-08-26 09:26:00,64.9,61.3,30.31,NW,304,1.0,3.0,88,0.00,,---,0.00,VWS V14.01,2013-08-26 13:26:00,
2013-08-26 09:31:00,65.4,61.1,30.31,NE,36,0.0,3.0,86,0.00,,---,0.00,VWS V14.01,2013-08-26 13:31:00,
2013-08-26 09:36:00,66.1,61.5,30.31,North,1,0.0,2.0,85,0.00,,---,0.00,VWS V14.01,2013-08-26 13:36:00,
2013-08-26 09:41:00,66.5,61.5,30.31,NNW,339,0.0,3.0,84,0.00,,---,0.00,VWS V14.01,2013-08-26 13:41:00,
2013-08-26 09:46:00,66.8,61.5,30.32,NNE,32,2.0,4.0,83,0.00,,---,0.00,VWS V14.01,2013-08-26 13:46:00,
2013-08-26 09:51:00,67.2,62.2,30.32,NE,43,0.0,3.0,84,0.00,,---,0.00,VWS V14.01,2013-08-26 13:51:00,
2013-08-26 09:56:00,67.9,62.2,30.32,North,352,0.0,2.0,82,0.00,,---,0.00,VWS V14.01,2013-08-26 13:56:00,
2013-08-26 10:01:00,68.3,62.6,30.32,NW,313,0.0,0.0,82,0.00,,---,0.00,VWS V14.01,2013-08-26 14:01:00,
2013-08-26 10:06:00,68.9,62.8,30.32,North,352,0.0,1.0,81,0.00,,---,0.00,VWS V14.01,2013-08-26 14:06:00,
2013-08-26 10:11:00,69.4,63.3,30.32,NNW,343,0.0,0.0,81,0.00,,---,0.00,VWS V14.01,2013-08-26 14:11:00,
2013-08-26 10:16:00,69.7,62.9,30.32,NNE,27,2.0,2.0,79,0.00,,---,0.00,VWS V14.01,2013-08-26 14:16:00,
2013-08-26 10:21:00,70.1,64.0,30.32,NNE,12,0.0,0.0,81,0.00,,---,0.00,VWS V14.01,2013-08-26 14:21:00,
2013-08-26 10:26:00,70.6,63.8,30.32,NNW,331,1.0,1.0,79,0.00,,---,0.00,VWS V14.01,2013-08-26 14:26:00,
2013-08-26 10:31:00,70.9,63.7,30.32,NW,325,1.0,1.0,78,0.00,,---,0.00,VWS V14.01,2013-08-26 14:31:00,
2013-08-26 10:36:00,71.4,63.5,30.32,NNW,341,2.0,2.0,76,0.00,,---,0.00,VWS V14.01,2013-08-26 14:36:00,
2013-08-26 10:41:00,71.6,63.6,30.32,North,1,1.0,2.0,76,0.00,,---,0.00,VWS V14.01,2013-08-26 14:41:00,
2013-08-26 10:46:00,71.5,63.5,30.32,NNW,331,0.0,0.0,76,0.00,,---,0.00,VWS V14.01,2013-08-26 14:46:00,
2013-08-26 10:51:00,71.7,62.2,30.32,East,89,1.0,3.0,72,0.00,,---,0.00,VWS V14.01,2013-08-26 14:51:00,
2013-08-26 10:56:00,72.0,62.9,30.32,NNE,18,0.0,2.0,73,0.00,,---,0.00,VWS V14.01,2013-08-26 14:56:00,
2013-08-26 11:01:00,72.5,62.6,30.32,NW,326,2.0,2.0,71,0.00,,---,0.00,VWS V14.01,2013-08-26 15:01:00,
2013-08-26 11:06:00,72.6,63.1,30.32,ESE,119,0.0,2.0,72,0.00,,---,0.00,VWS V14.01,2013-08-26 15:06:00,
2013-08-26 11:11:00,73.2,62.4,30.32,NNW,330,1.0,2.0,69,0.00,,---,0.00,VWS V14.01,2013-08-26 15:11:00,
2013-08-26 11:16:00,73.8,63.4,30.31,NNE,27,0.0,1.0,70,0.00,,---,0.00,VWS V14.01,2013-08-26 15:16:00,
2013-08-26 11:21:00,73.8,62.2,30.31,East,82,2.0,2.0,67,0.00,,---,0.00,VWS V14.01,2013-08-26 15:21:00,
2013-08-26 11:26:00,74.2,62.5,30.31,NW,309,2.0,2.0,67,0.00,,---,0.00,VWS V14.01,2013-08-26 15:26:00,
2013-08-26 11:32:00,74.4,63.6,30.31,North,355,0.0,0.0,69,0.00,,---,0.00,VWS V14.01,2013-08-26 15:32:00,
2013-08-26 11:37:00,74.8,62.3,30.31,NW,322,1.0,1.0,65,0.00,,---,0.00,VWS V14.01,2013-08-26 15:37:00,
2013-08-26 11:42:00,74.8,60.9,30.31,NE,44,3.0,4.0,62,0.00,,---,0.00,VWS V14.01,2013-08-26 15:42:00,
2013-08-26 11:47:00,74.5,62.0,30.31,NE,37,1.0,1.0,65,0.00,,---,0.00,VWS V14.01,2013-08-26 15:47:00,
2013-08-26 11:52:00,74.4,61.4,30.31,WNW,300,0.0,1.0,64,0.00,,---,0.00,VWS V14.01,2013-08-26 15:52:00,
2013-08-26 11:57:00,74.6,62.1,30.31,WNW,295,0.0,1.0,65,0.00,,---,0.00,VWS V14.01,2013-08-26 15:57:00,
2013-08-26 12:02:00,75.2,62.2,30.30,NNE,30,0.0,1.0,64,0.00,,---,0.00,VWS V14.01,2013-08-26 16:02:00,
2013-08-26 12:07:00,75.2,59.9,30.30,NNW,344,2.0,2.0,59,0.00,,---,0.00,VWS V14.01,2013-08-26 16:07:00,
2013-08-26 12:12:00,75.0,60.2,30.31,NE,41,2.0,4.0,60,0.00,,---,0.00,VWS V14.01,2013-08-26 16:12:00,
2013-08-26 12:17:00,75.1,60.3,30.30,NW,312,0.0,1.0,60,0.00,,---,0.00,VWS V14.01,2013-08-26 16:17:00,
2013-08-26 12:22:00,75.3,60.9,30.30,WNW,284,0.0,2.0,61,0.00,,---,0.00,VWS V14.01,2013-08-26 16:22:00,
2013-08-26 12:27:00,75.6,61.7,30.30,West,260,0.0,1.0,62,0.00,,---,0.00,VWS V14.01,2013-08-26 16:27:00,
2013-08-26 12:32:00,75.8,62.3,30.29,NNW,335,3.0,4.0,63,0.00,,---,0.00,VWS V14.01,2013-08-26 16:32:00,
2013-08-26 12:37:00,75.8,61.9,30.29,NNE,12,2.0,2.0,62,0.00,,---,0.00,VWS V14.01,2013-08-26 16:37:00,
2013-08-26 12:42:00,75.9,60.6,30.29,NNW,332,3.0,5.0,59,0.00,,---,0.00,VWS V14.01,2013-08-26 16:42:00,
2013-08-26 12:47:00,75.8,60.9,30.29,NNW,340,0.0,3.0,60,0.00,,---,0.00,VWS V14.01,2013-08-26 16:47:00,
2013-08-26 12:52:00,75.9,62.4,30.29,South,170,0.0,1.0,63,0.00,,---,0.00,VWS V14.01,2013-08-26 16:52:00,
2013-08-26 12:57:00,76.6,62.6,30.28,NE,44,0.0,1.0,62,0.00,,---,0.00,VWS V14.01,2013-08-26 16:57:00,
2013-08-26 13:02:00,77.3,62.8,30.28,ENE,68,1.0,1.0,61,0.00,,---,0.00,VWS V14.01,2013-08-26 17:02:00,
2013-08-26 13:07:00,77.5,61.1,30.28,NE,46,3.0,4.0,57,0.00,,---,0.00,VWS V14.01,2013-08-26 17:07:00,
2013-08-26 13:12:00,77.1,61.2,30.28,NNW,338,3.0,5.0,58,0.00,,---,0.00,VWS V14.01,2013-08-26 17:12:00,
2013-08-26 13:17:00,77.0,61.1,30.28,NW,309,2.0,4.0,58,0.00,,---,0.00,VWS V14.01,2013-08-26 17:17:00,
2013-08-26 13:22:00,77.1,61.2,30.28,WSW,248,0.0,3.0,58,0.00,,---,0.00,VWS V14.01,2013-08-26 17:22:00,
2013-08-26 13:27:00,77.1,61.7,30.28,NNE,18,0.0,3.0,59,0.00,,---,0.00,VWS V14.01,2013-08-26 17:27:00,
2013-08-26 13:32:00,77.0,61.6,30.28,North,360,0.0,2.0,59,0.00,,---,0.00,VWS V14.01,2013-08-26 17:32:00,
2013-08-26 13:37:00,77.5,62.1,30.27,NW,305,0.0,0.0,59,0.00,,---,0.00,VWS V14.01,2013-08-26 17:37:00,
2013-08-26 13:42:00,78.1,61.6,30.27,SSW,212,0.0,3.0,57,0.00,,---,0.00,VWS V14.01,2013-08-26 17:42:00,
2013-08-26 13:47:00,78.6,62.6,30.27,SW,224,2.0,3.0,58,0.00,,---,0.00,VWS V14.01,2013-08-26 17:47:00,
2013-08-26 13:52:00,78.5,61.0,30.27,SW,219,0.0,1.0,55,0.00,,---,0.00,VWS V14.01,2013-08-26 17:52:00,
2013-08-26 13:57:00,78.7,62.7,30.27,NNW,332,2.0,2.0,58,0.00,,---,0.00,VWS V14.01,2013-08-26 17:57:00,
2013-08-26 14:02:00,78.7,61.2,30.26,West,278,1.0,5.0,55,0.00,,---,0.00,VWS V14.01,2013-08-26 18:02:00,
2013-08-26 14:07:00,78.5,62.0,30.26,North,8,1.0,2.0,57,0.00,,---,0.00,VWS V14.01,2013-08-26 18:07:00,
2013-08-26 14:12:00,78.6,62.6,30.26,West,267,0.0,1.0,58,0.00,,---,0.00,VWS V14.01,2013-08-26 18:12:00,
2013-08-26 14:17:00,78.4,61.4,30.25,West,267,1.0,3.0,56,0.00,,---,0.00,VWS V14.01,2013-08-26 18:17:00,
2013-08-26 14:22:00,78.2,60.7,30.25,SW,236,2.0,3.0,55,0.00,,---,0.00,VWS V14.01,2013-08-26 18:22:00,
2013-08-26 14:28:00,78.3,61.8,30.25,SW,228,0.0,1.0,57,0.00,,---,0.00,VWS V14.01,2013-08-26 18:28:00,
2013-08-26 14:33:00,78.8,61.3,30.24,SE,133,1.0,2.0,55,0.00,,---,0.00,VWS V14.01,2013-08-26 18:33:00,
2013-08-26 14:38:00,79.4,62.3,30.24,SSE,152,2.0,2.0,56,0.00,,---,0.00,VWS V14.01,2013-08-26 18:38:00,
2013-08-26 14:43:00,79.6,61.5,30.24,SSW,211,2.0,2.0,54,0.00,,---,0.00,VWS V14.01,2013-08-26 18:43:00,
2013-08-26 14:48:00,79.2,62.2,30.24,WSW,257,0.0,1.0,56,0.00,,---,0.00,VWS V14.01,2013-08-26 18:48:00,
2013-08-26 14:53:00,78.8,62.8,30.23,SSW,210,2.0,5.0,58,0.00,,---,0.00,VWS V14.01,2013-08-26 18:53:00,
2013-08-26 14:58:00,78.8,62.8,30.23,ESE,105,1.0,1.0,58,0.00,,---,0.00,VWS V14.01,2013-08-26 18:58:00,
2013-08-26 15:03:00,79.0,64.9,30.23,SSE,162,1.0,1.0,62,0.00,,---,0.00,VWS V14.01,2013-08-26 19:03:00,
2013-08-26 15:08:00,78.7,63.7,30.22,ESE,116,2.0,5.0,60,0.00,,---,0.00,VWS V14.01,2013-08-26 19:08:00,
2013-08-26 15:13:00,78.5,64.4,30.22,SW,222,0.0,1.0,62,0.00,,---,0.00,VWS V14.01,2013-08-26 19:13:00,
2013-08-26 15:18:00,78.2,62.2,30.23,SE,127,2.0,3.0,58,0.00,,---,0.00,VWS V14.01,2013-08-26 19:18:00,
2013-08-26 15:23:00,78.0,63.5,30.22,ENE,72,1.0,1.0,61,0.00,,---,0.00,VWS V14.01,2013-08-26 19:23:00,
2013-08-26 15:28:00,78.5,62.0,30.22,ENE,60,1.0,2.0,57,0.00,,---,0.00,VWS V14.01,2013-08-26 19:28:00,
2013-08-26 15:33:00,79.2,63.7,30.21,NW,315,0.0,1.0,59,0.00,,---,0.00,VWS V14.01,2013-08-26 19:33:00,
2013-08-26 15:38:00,79.9,62.8,30.21,ENE,65,0.0,2.0,56,0.00,,---,0.00,VWS V14.01,2013-08-26 19:38:00,
2013-08-26 15:43:00,79.9,62.8,30.21,WNW,285,1.0,2.0,56,0.00,,---,0.00,VWS V14.01,2013-08-26 19:43:00,
2013-08-26 15:48:00,79.6,62.0,30.21,WNW,295,0.0,1.0,55,0.00,,---,0.00,VWS V14.01,2013-08-26 19:48:00,
2013-08-26 15:53:00,80.1,63.0,30.21,SSE,155,2.0,2.0,56,0.00,,---,0.00,VWS V14.01,2013-08-26 19:53:00,
2013-08-26 15:58:00,80.6,64.0,30.20,North,354,0.0,1.0,57,0.00,,---,0.00,VWS V14.01,2013-08-26 19:58:00,
2013-08-26 16:03:00,80.4,63.3,30.20,NNW,335,1.0,2.0,56,0.00,,---,0.00,VWS V14.01,2013-08-26 20:03:00,
2013-08-26 16:08:00,79.9,62.3,30.20,NE,49,3.0,4.0,55,0.00,,---,0.00,VWS V14.01,2013-08-26 20:08:00,
2013-08-26 16:13:00,79.8,63.7,30.20,East,99,1.0,3.0,58,0.00,,---,0.00,VWS V14.01,2013-08-26 20:13:00,
2013-08-26 16:18:00,79.9,64.8,30.20,ENE,77,0.0,2.0,60,0.00,,---,0.00,VWS V14.01,2013-08-26 20:18:00,
2013-08-26 16:23:00,79.8,62.7,30.19,ESE,104,3.0,3.0,56,0.00,,---,0.00,VWS V14.01,2013-08-26 20:23:00,
2013-08-26 16:29:00,79.8,62.2,30.19,West,269,0.0,2.0,55,0.00,,---,0.00,VWS V14.01,2013-08-26 20:29:00,
2013-08-26 16:34:00,80.1,63.0,30.19,West,280,2.0,2.0,56,0.00,,---,0.00,VWS V14.01,2013-08-26 20:34:00,
2013-08-26 16:39:00,80.1,63.5,30.19,West,276,0.0,1.0,57,0.00,,---,0.00,VWS V14.01,2013-08-26 20:39:00,
2013-08-26 16:44:00,80.1,63.0,30.19,WNW,294,2.0,3.0,56,0.00,,---,0.00,VWS V14.01,2013-08-26 20:44:00,
2013-08-26 16:49:00,79.8,63.2,30.19,WNW,287,1.0,3.0,57,0.00,,---,0.00,VWS V14.01,2013-08-26 20:49:00,
2013-08-26 16:54:00,79.6,62.0,30.19,SW,231,1.0,2.0,55,0.00,,---,0.00,VWS V14.01,2013-08-26 20:54:00,
2013-08-26 16:59:00,79.7,62.1,30.19,South,180,1.0,2.0,55,0.00,,---,0.00,VWS V14.01,2013-08-26 20:59:00,
2013-08-26 17:04:00,80.2,62.1,30.18,WNW,283,0.0,1.0,54,0.00,,---,0.00,VWS V14.01,2013-08-26 21:04:00,
2013-08-26 17:09:00,80.7,62.5,30.18,SW,221,0.0,1.0,54,0.00,,---,0.00,VWS V14.01,2013-08-26 21:09:00,
2013-08-26 17:14:00,81.3,63.1,30.18,SSE,148,0.0,0.0,54,0.00,,---,0.00,VWS V14.01,2013-08-26 21:14:00,
2013-08-26 17:19:00,81.5,62.2,30.18,WNW,284,2.0,3.0,52,0.00,,---,0.00,VWS V14.01,2013-08-26 21:19:00,
2013-08-26 17:24:00,81.0,63.8,30.18,WNW,290,0.0,2.0,56,0.00,,---,0.00,VWS V14.01,2013-08-26 21:24:00,
2013-08-26 17:29:00,80.8,63.1,30.18,ENE,68,0.0,2.0,55,0.00,,---,0.00,VWS V14.01,2013-08-26 21:29:00,
2013-08-26 17:34:00,81.1,63.4,30.17,ENE,68,0.0,1.0,55,0.00,,---,0.00,VWS V14.01,2013-08-26 21:34:00,
2013-08-26 17:39:00,81.3,62.5,30.17,WSW,255,0.0,0.0,53,0.00,,---,0.00,VWS V14.01,2013-08-26 21:39:00,
2013-08-26 17:44:00,82.1,63.3,30.17,WSW,255,0.0,0.0,53,0.00,,---,0.00,VWS V14.01,2013-08-26 21:44:00,
2013-08-26 17:49:00,82.4,63.6,30.17,SSW,211,1.0,1.0,53,0.00,,---,0.00,VWS V14.01,2013-08-26 21:49:00,
2013-08-26 17:54:00,82.0,64.8,30.17,South,174,0.0,0.0,56,0.00,,---,0.00,VWS V14.01,2013-08-26 21:54:00,
2013-08-26 17:59:00,82.7,64.4,30.17,South,174,0.0,0.0,54,0.00,,---,0.00,VWS V14.01,2013-08-26 21:59:00,
2013-08-26 18:04:00,82.0,62.7,30.17,SE,128,0.0,1.0,52,0.00,,---,0.00,VWS V14.01,2013-08-26 22:04:00,
2013-08-26 18:09:00,81.7,62.9,30.17,SE,129,0.0,0.0,53,0.00,,---,0.00,VWS V14.01,2013-08-26 22:09:00,
2013-08-26 18:14:00,81.2,61.9,30.17,SE,129,0.0,1.0,52,0.00,,---,0.00,VWS V14.01,2013-08-26 22:14:00,
2013-08-26 18:19:00,81.1,62.4,30.16,SSE,152,2.0,2.0,53,0.00,,---,0.00,VWS V14.01,2013-08-26 22:19:00,
2013-08-26 18:24:00,81.0,64.8,30.16,SSE,168,0.0,2.0,58,0.00,,---,0.00,VWS V14.01,2013-08-26 22:24:00,
2013-08-26 18:29:00,81.2,63.5,30.16,South,169,1.0,1.0,55,0.00,,---,0.00,VWS V14.01,2013-08-26 22:29:00,
2013-08-26 18:34:00,81.0,64.3,30.16,SW,214,1.0,2.0,57,0.00,,---,0.00,VWS V14.01,2013-08-26 22:34:00,
2013-08-26 18:40:00,80.5,64.9,30.16,SW,226,1.0,1.0,59,0.00,,---,0.00,VWS V14.01,2013-08-26 22:40:00,
2013-08-26 18:45:00,80.1,65.0,30.16,SSW,211,1.0,2.0,60,0.00,,---,0.00,VWS V14.01,2013-08-26 22:45:00,
2013-08-26 18:50:00,79.6,65.0,30.16,SSW,208,2.0,3.0,61,0.00,,---,0.00,VWS V14.01,2013-08-26 22:50:00,
2013-08-26 18:55:00,79.2,64.6,30.16,SSW,203,0.0,3.0,61,0.00,,---,0.00,VWS V14.01,2013-08-26 22:55:00,
2013-08-26 19:00:00,79.0,65.3,30.16,SSW,208,1.0,2.0,63,0.00,,---,0.00,VWS V14.01,2013-08-26 23:00:00,
2013-08-26 19:05:00,78.7,65.5,30.15,SSW,207,2.0,3.0,64,0.00,,---,0.00,VWS V14.01,2013-08-26 23:05:00,
2013-08-26 19:10:00,78.5,66.2,30.15,South,181,2.0,2.0,66,0.00,,---,0.00,VWS V14.01,2013-08-26 23:10:00,
2013-08-26 19:15:00,78.4,66.1,30.15,SSE,165,1.0,2.0,66,0.00,,---,0.00,VWS V14.01,2013-08-26 23:15:00,
2013-08-26 19:20:00,78.2,66.8,30.15,SSE,167,0.0,2.0,68,0.00,,---,0.00,VWS V14.01,2013-08-26 23:20:00,
2013-08-26 19:25:00,77.8,66.0,30.15,SSE,148,1.0,2.0,67,0.00,,---,0.00,VWS V14.01,2013-08-26 23:25:00,
2013-08-26 19:30:00,77.4,66.0,30.15,SSE,160,2.0,2.0,68,0.00,,---,0.00,VWS V14.01,2013-08-26 23:30:00,
2013-08-26 19:35:00,77.0,65.6,30.15,SSE,156,2.0,2.0,68,0.00,,---,0.00,VWS V14.01,2013-08-26 23:35:00,
2013-08-26 19:40:00,76.7,64.9,30.15,SSE,167,2.0,2.0,67,0.00,,---,0.00,VWS V14.01,2013-08-26 23:40:00,
2013-08-26 19:45:00,76.3,65.0,30.15,SSE,155,1.0,2.0,68,0.00,,---,0.00,VWS V14.01,2013-08-26 23:45:00,
2013-08-26 19:50:00,75.8,64.9,30.15,SSE,161,1.0,2.0,69,0.00,,---,0.00,VWS V14.01,2013-08-26 23:50:00,
2013-08-26 19:55:00,75.3,64.8,30.15,SSE,158,1.0,2.0,70,0.00,,---,0.00,VWS V14.01,2013-08-26 23:55:00,
2013-08-26 20:00:00,74.7,64.7,30.15,SSE,158,1.0,2.0,71,0.00,,---,0.00,VWS V14.01,2013-08-27 00:00:00,
2013-08-26 20:05:00,74.4,64.8,30.15,SSE,160,1.0,2.0,72,0.00,,---,0.00,VWS V14.01,2013-08-27 00:05:00,
2013-08-26 20:10:00,74.1,64.5,30.15,SSE,160,2.0,2.0,72,0.00,,---,0.00,VWS V14.01,2013-08-27 00:10:00,
2013-08-26 20:15:00,73.8,64.6,30.15,SSE,160,1.0,2.0,73,0.00,,---,0.00,VWS V14.01,2013-08-27 00:15:00,
2013-08-26 20:20:00,73.5,64.3,30.14,SSE,162,1.0,2.0,73,0.00,,---,0.00,VWS V14.01,2013-08-27 00:20:00,
2013-08-26 20:25:00,73.2,64.4,30.15,SSE,165,2.0,2.0,74,0.00,,---,0.00,VWS V14.01,2013-08-27 00:25:00,
2013-08-26 20:30:00,73.0,64.6,30.15,SSE,165,1.0,2.0,75,0.00,,---,0.00,VWS V14.01,2013-08-27 00:30:00,
2013-08-26 20:35:00,72.7,64.7,30.15,South,183,2.0,2.0,76,0.00,,---,0.00,VWS V14.01,2013-08-27 00:35:00,
2013-08-26 20:40:00,72.7,65.1,30.15,South,177,2.0,3.0,77,0.00,,---,0.00,VWS V14.01,2013-08-27 00:40:00,
2013-08-26 20:45:00,72.6,65.0,30.15,South,184,1.0,2.0,77,0.00,,---,0.00,VWS V14.01,2013-08-27 00:45:00,
2013-08-26 20:50:00,72.4,64.8,30.14,South,190,1.0,2.0,77,0.00,,---,0.00,VWS V14.01,2013-08-27 00:50:00,
2013-08-26 20:55:00,72.1,64.9,30.15,SSW,201,3.0,3.0,78,0.00,,---,0.00,VWS V14.01,2013-08-27 00:55:00,
2013-08-26 21:00:00,72.0,65.1,30.15,SSW,197,1.0,2.0,79,0.00,,---,0.00,VWS V14.01,2013-08-27 01:00:00,
2013-08-26 21:05:00,72.0,65.1,30.14,SSW,203,2.0,3.0,79,0.00,,---,0.00,VWS V14.01,2013-08-27 01:05:00,
2013-08-26 21:11:00,71.8,64.6,30.15,SSW,204,2.0,3.0,78,0.00,,---,0.00,VWS V14.01,2013-08-27 01:11:00,
2013-08-26 21:16:00,71.8,64.9,30.15,SSW,193,2.0,3.0,79,0.00,,---,0.00,VWS V14.01,2013-08-27 01:16:00,
2013-08-26 21:21:00,71.6,65.1,30.15,SSW,203,1.0,2.0,80,0.00,,---,0.00,VWS V14.01,2013-08-27 01:21:00,
2013-08-26 21:26:00,71.2,65.1,30.16,SSW,201,1.0,2.0,81,0.00,,---,0.00,VWS V14.01,2013-08-27 01:26:00,
2013-08-26 21:31:00,71.0,65.2,30.16,SSW,208,1.0,2.0,82,0.00,,---,0.00,VWS V14.01,2013-08-27 01:31:00,
2013-08-26 21:36:00,70.7,65.3,30.16,SSW,194,1.0,1.0,83,0.00,,---,0.00,VWS V14.01,2013-08-27 01:36:00,
2013-08-26 21:41:00,70.3,65.6,30.16,SSW,194,1.0,2.0,85,0.00,,---,0.00,VWS V14.01,2013-08-27 01:41:00,
2013-08-26 21:46:00,70.0,65.3,30.16,South,191,1.0,2.0,85,0.00,,---,0.00,VWS V14.01,2013-08-27 01:46:00,
2013-08-26 21:51:00,69.7,64.7,30.16,SSE,166,2.0,2.0,84,0.00,,---,0.00,VWS V14.01,2013-08-27 01:51:00,
2013-08-26 21:56:00,69.6,64.2,30.16,SSE,166,1.0,2.0,83,0.00,,---,0.00,VWS V14.01,2013-08-27 01:56:00,
2013-08-26 22:01:00,69.5,64.1,30.17,SSE,159,2.0,2.0,83,0.00,,---,0.00,VWS V14.01,2013-08-27 02:01:00,
2013-08-26 22:06:00,69.4,64.0,30.16,SSE,160,3.0,3.0,83,0.00,,---,0.00,VWS V14.01,2013-08-27 02:06:00,
2013-08-26 22:11:00,69.4,63.7,30.16,SSE,158,2.0,2.0,82,0.00,,---,0.00,VWS V14.01,2013-08-27 02:11:00,
2013-08-26 22:16:00,69.4,63.7,30.16,SSE,150,2.0,2.0,82,0.00,,---,0.00,VWS V14.01,2013-08-27 02:16:00,
2013-08-26 22:21:00,69.2,63.5,30.16,SSE,150,3.0,3.0,82,0.00,,---,0.00,VWS V14.01,2013-08-27 02:21:00,
2013-08-26 22:26:00,69.1,63.4,30.16,SSE,162,2.0,2.0,82,0.00,,---,0.00,VWS V14.01,2013-08-27 02:26:00,
2013-08-26 22:31:00,69.0,63.6,30.16,SE,136,1.0,1.0,83,0.00,,---,0.00,VWS V14.01,2013-08-27 02:31:00,
2013-08-26 22:36:00,68.8,63.4,30.16,SSE,155,2.0,2.0,83,0.00,,---,0.00,VWS V14.01,2013-08-27 02:36:00,
2013-08-26 22:41:00,68.6,63.2,30.16,SSE,164,2.0,2.0,83,0.00,,---,0.00,VWS V14.01,2013-08-27 02:41:00,
2013-08-26 22:46:00,68.5,63.5,30.16,SSE,165,1.0,2.0,84,0.00,,---,0.00,VWS V14.01,2013-08-27 02:46:00,
2013-08-26 22:51:00,68.5,63.5,30.16,SSE,165,1.0,1.0,84,0.00,,---,0.00,VWS V14.01,2013-08-27 02:51:00,
2013-08-26 22:56:00,68.4,63.4,30.16,SSE,165,1.0,1.0,84,0.00,,---,0.00,VWS V14.01,2013-08-27 02:56:00,
2013-08-26 23:01:00,68.2,63.2,30.16,SSE,165,2.0,2.0,84,0.00,,---,0.00,VWS V14.01,2013-08-27 03:01:00,
2013-08-26 23:06:00,68.1,63.1,30.16,SSE,165,2.0,2.0,84,0.00,,---,0.00,VWS V14.01,2013-08-27 03:06:00,
2013-08-26 23:11:00,68.0,63.3,30.16,SSE,165,2.0,2.0,85,0.00,,---,0.00,VWS V14.01,2013-08-27 03:11:00,
2013-08-26 23:16:00,67.9,63.2,30.16,SSE,165,1.0,1.0,85,0.00,,---,0.00,VWS V14.01,2013-08-27 03:16:00,
2013-08-26 23:21:00,67.7,63.4,30.16,SSE,165,1.0,1.0,86,0.00,,---,0.00,VWS V14.01,2013-08-27 03:21:00,
2013-08-26 23:26:00,67.6,63.3,30.16,SSE,165,0.0,1.0,86,0.00,,---,0.00,VWS V14.01,2013-08-27 03:26:00,
2013-08-26 23:31:00,67.5,63.2,30.16,South,172,2.0,2.0,86,0.00,,---,0.00,VWS V14.01,2013-08-27 03:31:00,
2013-08-26 23:36:00,67.4,63.4,30.16,South,176,1.0,1.0,87,0.00,,---,0.00,VWS V14.01,2013-08-27 03:36:00,
2013-08-26 23:41:00,67.4,63.7,30.16,South,169,1.0,1.0,88,0.00,,---,0.00,VWS V14.01,2013-08-27 03:41:00,
2013-08-26 23:46:00,67.3,63.6,30.16,South,169,0.0,0.0,88,0.00,,---,0.00,VWS V14.01,2013-08-27 03:46:00,
2013-08-26 23:51:00,67.2,63.5,30.16,SW,217,0.0,0.0,88,0.00,,---,0.00,VWS V14.01,2013-08-27 03:51:00,
2013-08-26 23:57:00,67.1,63.8,30.16,SSW,211,1.0,1.0,89,0.00,,---,0.00,VWS V14.01,2013-08-27 03:57:00,